Weather History for Kolkata, India

Change the Weather History Date:

Tuesday, March 12, 2013

  Actual Average Record
Temperature  
Mean Temperature 85 °F -  
Max Temperature 95 °F 88 °F 95 °F (2013)
Min Temperature 75 °F 68 °F 60 °F (2001)
Cooling Degree Days 20    
Growing Degree Days 35 (Base 50)    
Moisture  
Dew Point 71 °F    
Average Humidity 68    
Maximum Humidity 89    
Minimum Humidity 31    
Precipitation  
Precipitation 0.00 in - - ()
Sea Level Pressure  
Sea Level Pressure 29.79 in    
Wind  
Wind Speed 6 mph ()    
Max Wind Speed 66 mph    
Max Gust Speed -    
Visibility 1.6 miles    
Events      
Averages and records for this station are not official NWS values.
T = Trace of Precipitation, MM = Missing Value Source: Averaged Metar Reports

Daily Weather History Graph

Daily Weather History Graph

Search for Another Location

Airport:

Trip Planner

Search our weather history database for the weather conditions in past years. The results will help you decide how hot, cold, wet, or windy it might be!

Date:

Astronomy

Mar. 12, 2013 Rise Set
Actual Time 5:48 AM IST 5:44 PM IST
Civil Twilight 5:25 AM IST 6:06 PM IST
Nautical Twilight 4:59 AM IST 6:32 PM IST
Astronomical Twilight 4:33 AM IST 6:58 PM IST
Moon 5:45 AM IST (3/12) 6:17 PM IST (3/12)
Length of Visible Light 12h 41m
Length of Day
11h 56m
New Moon, 0% of the Moon is Illuminated
Mar 12
New Moon
Mar 19
First Quarter
Mar 27
Full
Apr 3
Last Quarter
Apr 10
New

Hourly Weather History & Observations

Time (IST) Temp. Heat Index Dew Point Humidity Pressure Visibility Wind Dir Wind Speed Gust Speed Precip Events Conditions
12:20 AM 78.8 °F - 69.8 °F 74% 29.80 in 1.9 mi SSW 8.1 mph - N/A   Haze
12:50 AM 78.8 °F - 71.6 °F 78% 29.80 in 1.9 mi South 6.9 mph - N/A   Scattered Clouds
1:20 AM 78.8 °F - 71.6 °F 78% 29.80 in 1.9 mi SSW 10.4 mph - N/A   Scattered Clouds
1:50 AM 78.8 °F - 71.6 °F 78% 29.77 in 1.9 mi SSW 5.8 mph - N/A   Scattered Clouds
2:20 AM 77.0 °F - 71.6 °F 83% 29.77 in 1.9 mi SSW 8.1 mph - N/A   Scattered Clouds
2:30 AM 77 °F - 73 °F 83% 29.78 in 1 mi SW 2.3 mph - -   Haze
2:50 AM 77.0 °F - 71.6 °F 83% 29.74 in 1.9 mi SSW 5.8 mph - N/A   Scattered Clouds
3:20 AM 77.0 °F - 71.6 °F 83% 29.74 in 1.9 mi Calm Calm - N/A   Scattered Clouds
4:20 AM 77.0 °F - 73.4 °F 89% 29.77 in 1.9 mi Calm Calm - N/A   Scattered Clouds
5:20 AM 77.0 °F - 73.4 °F 89% 29.77 in 1.6 mi WSW 8.1 mph - N/A   Scattered Clouds
5:30 AM 77 °F - 73 °F 83% 29.78 in 1 mi SW 2.3 mph - -   Haze
5:50 AM 77.0 °F - 73.4 °F 89% 29.77 in 1.4 mi WSW 8.1 mph - N/A   Mostly Cloudy
6:20 AM 78.8 °F - 73.4 °F 83% 29.80 in 1.2 mi WSW 9.2 mph - N/A   Scattered Clouds
6:50 AM 78.8 °F - 73.4 °F 83% 29.80 in 1.2 mi WSW 9.2 mph - N/A   Partly Cloudy
7:20 AM 78.8 °F - 73.4 °F 83% 29.80 in 1.6 mi WSW 8.1 mph - N/A   Mostly Cloudy
7:50 AM 80.6 °F 85.4 °F 73.4 °F 79% 29.83 in 1.6 mi West 6.9 mph - N/A   Mostly Cloudy
8:20 AM 80.6 °F 85.4 °F 73.4 °F 79% 29.86 in 1.6 mi West 8.1 mph - N/A   Scattered Clouds
8:30 AM 80 °F - 72 °F 72% 29.87 in 1 mi WNW 2.3 mph - -   Haze
8:50 AM 80.6 °F 85.4 °F 73.4 °F 79% 29.86 in 1.7 mi NW 5.8 mph - N/A   Scattered Clouds
9:20 AM 80.6 °F 86.2 °F 75.2 °F 84% 29.86 in 1.7 mi NW 65.6 mph - N/A   Scattered Clouds
10:20 AM 84.2 °F 92.3 °F 75.2 °F 74% 29.86 in 1.9 mi WNW 5.8 mph - N/A   Haze
10:50 AM 84.2 °F 92.3 °F 75.2 °F 74% 29.83 in 1.9 mi WSW 3.5 mph - N/A   Haze
11:20 AM 86.0 °F 93.4 °F 73.4 °F 66% 29.80 in 1.9 mi WNW 3.5 mph - N/A   Haze
11:50 AM 87.8 °F 95.6 °F 73.4 °F 62% 29.80 in - WSW 4.6 mph - N/A   Haze
12:20 PM 89.6 °F 98.2 °F 73.4 °F 59% 29.77 in - SW 3.5 mph - N/A   Haze
12:50 PM 89.6 °F 96.2 °F 71.6 °F 55% 29.77 in - West 4.6 mph - N/A   Haze
1:20 PM 91.4 °F 95.4 °F 68.0 °F 46% 29.77 in - NW 5.8 mph - N/A   Haze
1:50 PM 93.2 °F 96.2 °F 66.2 °F 41% 29.74 in - NW 5.8 mph - N/A   Haze
2:20 PM 95.0 °F 98.5 °F 66.2 °F 39% 29.74 in - North 5.8 mph - N/A   Haze
2:30 PM 93 °F - 66 °F 31% 29.74 in 1 mi NW 3.5 mph - -   Haze
2:50 PM 93.2 °F 94.9 °F 64.4 °F 38% 29.71 in - North 4.6 mph - N/A   Haze
3:20 PM 95.0 °F 96.0 °F 62.6 °F 34% 29.71 in - NNW 3.5 mph - N/A   Haze
3:50 PM 93.2 °F 94.9 °F 64.4 °F 38% 29.71 in - NNW 3.5 mph - N/A   Haze
4:20 PM 93.2 °F 94.1 °F 62.6 °F 36% 29.71 in - Calm Calm - N/A   Haze
4:50 PM 91.4 °F 93.2 °F 64.4 °F 41% 29.71 in - SE 4.6 mph - N/A   Haze
5:20 PM 91.4 °F 94.0 °F 66.2 °F 43% 29.71 in - SE 5.8 mph - N/A   Haze
6:20 PM 87.8 °F 92.6 °F 69.8 °F 55% 29.74 in 1.7 mi ESE 3.5 mph - N/A   Haze
6:50 PM 87.8 °F 93.8 °F 71.6 °F 58% 29.74 in 1.7 mi ESE 4.6 mph - N/A   Haze
7:20 PM 86.0 °F 90.4 °F 69.8 °F 58% 29.77 in 1.6 mi SSE 8.1 mph - N/A   Haze
7:50 PM 84.2 °F 88.4 °F 69.8 °F 62% 29.77 in 1.6 mi South 6.9 mph - N/A   Haze
8:20 PM 84.2 °F 88.4 °F 69.8 °F 62% 29.80 in 1.6 mi South 8.1 mph - N/A   Haze
8:30 PM 84 °F - 75 °F 68% 29.83 in 1 mi South 2.3 mph - -   Haze
8:50 PM 82.4 °F 88.2 °F 73.4 °F 74% 29.80 in 1.6 mi SSW 9.2 mph - N/A   Haze
9:20 PM 80.6 °F 85.4 °F 73.4 °F 79% 29.83 in 1.6 mi South 6.9 mph - N/A   Mist
9:50 PM 80.6 °F 85.4 °F 73.4 °F 79% 29.83 in 1.6 mi South 8.1 mph - N/A   Mist
10:20 PM 80.6 °F 85.4 °F 73.4 °F 79% 29.83 in 1.6 mi South 8.1 mph - N/A   Mist
10:50 PM 80.6 °F 85.4 °F 73.4 °F 79% 29.83 in 1.6 mi SSW 10.4 mph - N/A   Mist
11:20 PM 78.8 °F - 73.4 °F 83% 29.83 in 1.6 mi SSW 9.2 mph - N/A   Scattered Clouds
11:30 PM 80 °F - 76 °F 83% 29.85 in 1 mi SSW 2.3 mph - -   Haze
11:50 PM 78.8 °F - 75.2 °F 89% 29.83 in 1.6 mi SSW 8.1 mph - N/A   Scattered Clouds